Regional Weather Roundup
Issued by NWS Kansas City/Pleasant Hill, MO

Home | Current Version | Previous Version | Graphics & Text | Print | Product List | Glossary Off
Versions: 1 2 3 4 5 6 7 8 9 10 11 12 13 14 15 16 17 18 19 20 21 22 23 24 25 26 27 28 29 30 31 32 33 34 35 36 37 38 39 40 41 42 43 44 45 46 47 48 49 50

000
ASUS43 KEAX 221311
RWREAX

WEATHER ROUNDUP FOR EASTERN KANSAS AND NORTHWEST MISSOURI
NATIONAL WEATHER SERVICE KANSAS CITY/PLEASANT HILL MO
800 AM CDT FRI AUG 22 2014

KSZ040-057-103>105-MOZ028-029-037-043-221400-
...KANSAS CITY METROPOLITAN AREA...

CITY           SKY/WX    TMP DP  RH WIND       PRES   REMARKS
K.C. INTL      PTSUNNY   79  72  79 S5        29.94R
K.C. DOWNTOWN  MOSUNNY   81  70  69 VRB3      29.93R
LEES SUMMIT    MOSUNNY   77  70  79 SW5       29.95R
OLATHE - IXD   MOSUNNY   77  71  82 S9        29.94R
OLATHE - OJC   MOSUNNY   77  70  79 S10       29.93R
LAWRENCE       MOSUNNY   82  71  69 VRB3      29.92R

$$

MOZ001>008-011>017-020>025-030>033-038>040-044>046-053-054-221400-
...NORTHERN AND CENTRAL MISSOURI...

CITY           SKY/WX    TMP DP  RH WIND       PRES   REMARKS
ST. JOSEPH     TSTM      77  74  90 S7        29.93R FOG
MOSBY          MOSUNNY   77  72  83 CALM      29.95R
WHITEMAN AFB   MOSUNNY   77  53  42 SW10      29.95R
CLINTON        SUNNY     79  72  78 S7        29.97R
SEDALIA        MOSUNNY   79  71  76 SW13      29.97R
WARSAW         NOT AVBL
MARSHALL       PTSUNNY   81  75  83 CALM      29.98R
CHILLICOTHE      N/A     78  73  84 SE3       29.96R
MOBERLY        CLOUDY    75  70  83 NE5       30.00R
KIRKSVILLE     TSTM      74  73  97 S7        29.96F FOG

$$

MOZ041-047>049-056>058-063>065-088>090-097-221400-
...EASTERN AND SOUTHERN MISSOURI...

CITY           SKY/WX    TMP DP  RH WIND       PRES   REMARKS
ST. LOUIS INTL NOT AVBL
SPIRIT OF STL  PTSUNNY   79  71  76 SW9       29.98R
COLUMBIA       PTSUNNY   76  72  87 S5        29.99R
JEFFERSON CITY MOSUNNY   77  71  82 E3        29.98R
MEXICO         CLOUDY   N/A N/A N/A CALM      30.02R
HANNIBAL       CLOUDY    79  70  73 SW5       29.98F
ROLLA          SUNNY     76  70  82 S7        30.01R
LEBANON        SUNNY     81  70  69 SW8       30.03R
OSAGE BEACH    SUNNY     79  70  73 S5        29.99S
SPRINGFIELD    SUNNY     77  71  82 S12       30.01S
BRANSON        SUNNY     79  72  78 CALM      30.06R
NEVADA         SUNNY     79  70  73 S12G18    29.98R
JOPLIN         SUNNY     80  69  69 S15       30.00R
WEST PLAINS    SUNNY     76  71  85 S8        30.07R

$$

IAZ060-094-KSZ022-034>040-054-083-096-NEZ052-066-093-221400-
...KANSAS...SOUTHEAST NEBRASKA AND IOWA...

CITY           SKY/WX    TMP DP  RH WIND       PRES   REMARKS
TOPEKA         PTSUNNY   81  72  74 N3        29.92R
MANHATTAN      PTSUNNY   82  69  64 SW16      29.88R
EMPORIA        SUNNY     76  69  79 S17       29.92R
CHANUTE        SUNNY     78  69  73 S10       29.96R
WICHITA        MOSUNNY   78  65  63 S14       29.92R
OMAHA          PTSUNNY   75  70  84 CALM      29.90S
LINCOLN        SUNNY     75  72  90 N3        29.91R
FALLS CITY     CLOUDY    79  73  82 S8        29.91S
LAMONI         PTSUNNY   75  71  87 S8        29.93S
DES MOINES     PTSUNNY   75  70  84 E6        29.92R

$$



USA.gov is the U.S. government's official web portal to all federal, state and local government web resources and services.